Location: Newark
(47.3150°N, 5.1150°E)
Time: 23:58:24
(UTC+00:00)

OTV 5 (USA 277) - Visible Passes

Search period start: 16 October 2019 00:00
Search period end: 26 October 2019 00:00
Orbit: 310 x 324 km, 54.5° (Epoch: 08 October)

Date Brightness Start Highest point End Pass type
(mag) Time Alt. Az. Time Alt. Az. Time Alt. Az.
16 Oct ? 04:07:19 26° NNE 04:07:27 26° NNE 04:09:51 10° ENE visible
17 Oct ? 04:21:37 37° N 04:22:09 43° NNE 04:24:48 10° E visible
18 Oct ? 04:36:01 43° WNW 04:36:47 87° SSW 04:39:30 10° SE visible
19 Oct ? 04:50:31 28° WSW 04:51:15 34° SW 04:53:47 10° SSE visible
20 Oct ? 03:34:13 11° ESE 03:34:13 11° ESE 03:34:19 10° ESE visible
20 Oct ? 05:05:08 15° WSW 05:05:37 15° SW 05:07:18 10° S visible
